If you wish to contribute or participate in the discussions about articles you are invited to join SKYbrary as a registered user

 Actions

Angelholm Helsingborg Airport

From SKYbrary Wiki

ESTA
Airport
ICAO: ESTA
Summary
Name Angelholm Helsingborg Airport
Region Europe
Territory Sweden SE.gif
Location Angelholm, Sweden
Serving
Coordinates 56° 17' 28.00" N, 12° 51' 18.00" E
Runways
Designator Length Width Surface ROPS
4/22 1997 m6,551.837 ft
40 m131.234 ft
ASP /
14/32 1945 m6,381.234 ft
40 m131.234 ft
ASP yes/yes


METAR
Observation ESTA 151550Z AUTO 09007KT 9999 OVC031/// 01/M01 Q1029
Station ANGELHOLM (SWE-A
Date/Time 15 December 2018 15:50:00
Wind direction 90°
Wind speed 07 kts
Lowest cloud amount overcast
Temperature 1°C
Dew point
Humidity 86%
QNH 1029 hPa
Weather condition n/a

Angelholm-Helsingborg Airport

ICAO: ESTA IATA: AGH

Description

Airport serving towns of Angelholm and Helsingborg, southwest Sweden.

Climatology

Temperate Marine climate/Oceanic climate (Köppen climate classification Cfb). Moderately cool summer and comparatively warm winter.

Maps

Terrain

Loading map...

Airport Layout

Loading map...


Accidents & Serious Incidents at or in vicinity of ESTA

None on SKYbrary